�N����,����,�~����,�C��,���x,�C��,����,���ϕ���,�ő�u�ԕ���,�ő厞����,���˗�,�I�_���x,�n�����x,�ő啗���N��,DTYPE
"19/06/05","00:10",0.0,22.7,79.8,1004.5,339.5,1.3,2.2,328.1,0.00,19.1,22.5,"00:08:16",1
"19/06/05","00:20",0.0,22.7,79.9,1004.5,323.5,1.5,2.7,331.7,0.00,19.1,22.6,"00:19:28",1
"19/06/05","00:30",0.0,22.5,80.1,1004.3,325.4,1.3,2.2,333.3,0.00,18.9,22.5,"00:21:12",1
"19/06/05","00:40",0.0,22.5,80.5,1004.5,315.7,1.6,2.9,334.1,0.00,19.0,22.3,"00:38:16",1
"19/06/05","00:50",0.0,22.4,80.8,1005.0,308.9,1.2,2.4,315.3,0.00,19.0,22.6,"00:40:16",1
"19/06/05","01:00",0.0,22.5,80.9,1004.5,301.1,1.0,2.4,339.1,0.00,19.1,22.6,"00:59:44",1
"19/06/05","01:10",0.0,22.5,80.9,1004.5,326.3,1.3,3.1,315.2,0.00,19.1,22.3,"01:05:12",1
"19/06/05","01:20",0.0,22.5,80.7,1004.3,337.5,1.2,1.8,347.3,0.00,19.1,22.3,"01:14:08",1
"19/06/05","01:30",0.0,22.3,81.0,1004.5,329.4,1.6,2.1,318.9,0.00,18.9,22.4,"01:29:52",1
"19/06/05","01:40",0.0,22.1,81.6,1004.5,307.3,1.2,1.9,325.3,0.00,18.8,22.2,"01:30:16",1
"19/06/05","01:50",0.0,22.1,82.1,1004.5,325.9,1.3,2.0,323.5,0.00,18.9,22.0,"01:40:24",1
"19/06/05","02:00",0.0,22.1,82.4,1004.3,335.2,1.3,2.5,335.0,0.00,19.0,22.2,"01:55:52",1
"19/06/05","02:10",0.0,22.0,82.6,1004.1,346.9,0.6,1.6,14.3,0.00,18.9,22.1,"02:01:04",1
"19/06/05","02:20",0.0,21.9,82.9,1004.1,305.9,1.0,1.3,306.2,0.00,18.9,22.0,"02:15:20",1
"19/06/05","02:30",0.0,21.7,83.4,1004.5,292.5,1.0,1.4,321.9,0.00,18.8,22.1,"02:24:32",1
"19/06/05","02:40",0.0,21.7,83.7,1004.5,288.2,1.1,2.4,341.2,0.00,18.9,22.1,"02:38:32",1
"19/06/05","02:50",0.0,21.8,83.6,1004.5,330.2,1.6,2.7,331.1,0.00,18.9,22.1,"02:46:00",1
"19/06/05","03:00",0.0,21.9,83.5,1003.8,10.4,0.6,1.6,346.8,0.00,19.0,22.0,"02:50:16",1
"19/06/05","03:10",0.0,21.8,83.8,1004.1,353.7,0.5,0.9,336.1,0.00,19.0,22.1,"03:02:32",1
"19/06/05","03:20",0.0,21.8,84.0,1004.5,313.9,1.5,2.1,320.5,0.00,19.0,22.1,"03:15:04",1
"19/06/05","03:30",0.0,21.7,84.3,1004.5,306.7,1.5,2.1,323.6,0.00,19.0,21.9,"03:20:24",1
"19/06/05","03:40",0.0,21.7,84.4,1004.5,307.2,1.5,2.4,327.1,0.00,19.0,22.0,"03:33:20",1
"19/06/05","03:50",0.0,21.6,84.6,1004.3,323.4,1.0,1.6,328.4,0.00,18.9,21.9,"03:49:20",1
"19/06/05","04:00",0.0,21.6,84.9,1004.1,313.4,1.3,1.9,308.0,0.00,19.0,22.0,"03:55:52",1
"19/06/05","04:10",0.0,21.8,85.2,1004.1,315.6,1.0,1.8,318.4,0.00,19.2,21.8,"04:04:56",1
"19/06/05","04:20",0.0,22.0,84.7,1003.8,333.4,1.0,1.9,328.3,0.00,19.3,21.9,"04:11:36",1
"19/06/05","04:30",0.0,22.0,84.0,1004.1,340.1,0.8,1.6,291.6,0.00,19.2,21.8,"04:20:32",1
"19/06/05","04:40",0.0,22.0,83.4,1004.3,332.5,1.1,1.8,320.6,0.00,19.1,21.8,"04:39:04",1
"19/06/05","04:50",0.0,22.0,83.1,1004.3,333.0,0.6,1.4,330.7,0.00,19.0,21.8,"04:40:08",1
"19/06/05","05:00",0.0,21.9,83.0,1004.1,308.0,0.6,1.2,309.8,0.00,18.9,21.6,"04:54:24",1
"19/06/05","05:10",0.0,21.8,83.5,1003.8,320.0,0.8,1.6,345.1,0.00,18.9,21.9,"05:09:36",1
"19/06/05","05:20",0.0,21.8,83.6,1003.8,333.9,1.5,1.9,333.1,0.00,18.9,21.5,"05:14:40",1
"19/06/05","05:30",0.0,21.6,84.6,1003.6,331.6,1.3,1.7,329.4,0.00,18.9,21.7,"05:25:52",1
"19/06/05","05:40",0.0,21.4,85.2,1003.6,332.0,1.5,2.0,319.3,0.00,18.9,21.7,"05:36:48",1
"19/06/05","05:50",0.0,21.3,85.7,1003.8,327.0,1.5,2.1,337.1,0.00,18.8,21.6,"05:48:16",1
"19/06/05","06:00",0.0,21.2,86.3,1004.3,297.0,0.8,1.6,329.1,0.00,18.9,21.7,"05:50:48",1
"19/06/05","06:10",0.0,21.1,86.7,1004.3,306.1,1.0,1.6,320.9,0.00,18.8,21.6,"06:09:12",1
"19/06/05","06:20",0.0,21.2,86.9,1004.3,276.1,1.1,1.6,260.3,0.01,19.0,21.6,"06:18:40",1
"19/06/05","06:30",0.0,21.4,86.7,1004.5,286.8,1.0,1.6,319.2,0.01,19.1,21.7,"06:23:44",1
"19/06/05","06:40",0.0,21.5,86.8,1004.5,301.2,0.6,1.1,295.9,0.01,19.2,21.6,"06:30:48",1
"19/06/05","06:50",0.0,21.7,86.3,1004.3,325.5,1.2,1.6,324.7,0.02,19.4,21.6,"06:41:36",1
"19/06/05","07:00",0.0,21.9,85.7,1004.5,340.2,1.3,2.1,341.5,0.03,19.4,21.7,"06:53:20",1
"19/06/05","07:10",0.0,22.0,85.8,1004.5,332.8,1.2,1.8,328.3,0.04,19.6,21.6,"07:09:36",1
"19/06/05","07:20",0.0,22.1,85.5,1004.5,331.2,1.3,1.8,333.4,0.05,19.6,21.8,"07:10:24",1
"19/06/05","07:30",0.0,22.3,84.6,1004.8,304.5,0.8,1.6,337.2,0.05,19.6,21.7,"07:20:16",1
"19/06/05","07:40",0.0,22.4,84.0,1004.8,308.1,0.8,1.2,313.8,0.05,19.6,21.6,"07:34:32",1
"19/06/05","07:50",0.0,22.8,83.0,1004.8,334.6,1.5,2.5,337.7,0.07,19.8,21.7,"07:45:12",1
"19/06/05","08:00",0.0,22.8,81.7,1005.0,352.3,1.0,1.8,358.7,0.07,19.5,21.8,"07:55:04",1
"19/06/05","08:10",0.0,23.1,80.2,1004.8,28.1,0.6,1.2,345.4,0.07,19.5,21.9,"08:00:16",1
"19/06/05","08:20",0.0,23.5,77.9,1005.0,51.7,0.6,1.9,85.8,0.11,19.5,21.8,"08:12:40",1
"19/06/05","08:30",0.0,23.5,76.9,1004.8,12.8,0.8,2.8,351.2,0.14,19.3,22.1,"08:28:00",1
"19/06/05","08:40",0.0,23.9,75.2,1004.8,338.6,0.7,1.9,338.3,0.16,19.3,22.0,"08:37:12",1
"19/06/05","08:50",0.0,24.1,74.6,1004.5,341.8,0.6,1.6,33.8,0.16,19.3,22.2,"08:41:20",1
"19/06/05","09:00",0.0,24.0,74.7,1004.5,33.7,0.6,1.4,78.9,0.13,19.3,22.3,"08:51:20",1
"19/06/05","09:10",0.0,24.1,74.6,1004.3,212.9,0.6,1.3,243.3,0.14,19.3,22.2,"09:08:56",1
"19/06/05","09:20",0.0,24.0,75.0,1004.3,248.9,0.6,1.6,211.3,0.10,19.3,22.3,"09:14:32",1
"19/06/05","09:30",0.0,24.0,73.3,1004.3,229.5,0.6,2.0,232.7,0.15,19.0,22.5,"09:29:28",1
"19/06/05","09:40",0.0,24.1,72.8,1004.1,225.1,1.3,2.7,240.3,0.14,19.0,22.6,"09:31:28",1
"19/06/05","09:50",0.0,24.1,73.1,1004.1,237.7,1.0,2.5,236.9,0.16,19.0,22.7,"09:42:24",1
"19/06/05","10:00",0.0,24.4,71.9,1003.8,225.1,1.0,1.7,237.5,0.19,19.0,22.6,"09:53:04",1
"19/06/05","10:10",0.0,24.5,73.2,1003.8,134.4,0.5,1.6,113.4,0.18,19.4,22.9,"10:05:44",1
"19/06/05","10:20",0.0,24.7,72.4,1004.1,156.7,0.3,1.1,175.8,0.18,19.4,22.9,"10:18:16",1
"19/06/05","10:30",0.0,24.8,71.2,1003.8,181.4,0.7,1.9,228.3,0.18,19.3,22.9,"10:23:04",1
"19/06/05","10:40",0.0,25.3,70.8,1003.8,294.5,0.6,1.8,90.3,0.22,19.7,23.0,"10:30:40",1
"19/06/05","10:50",0.0,25.0,71.3,1004.1,15.7,1.0,3.1,337.5,0.25,19.5,23.0,"10:43:44",1
"19/06/05","11:00",0.0,25.6,67.2,1003.1,16.4,0.7,2.2,352.3,0.34,19.1,23.3,"10:53:44",1
"19/06/05","11:10",0.0,25.9,66.5,1003.8,21.3,0.7,1.4,12.2,0.39,19.2,23.4,"11:07:20",1
"19/06/05","11:20",0.0,26.7,65.8,1004.3,348.8,0.8,2.1,338.9,0.38,19.8,23.7,"11:14:00",1
"19/06/05","11:30",0.0,26.6,64.1,1004.5,202.0,0.6,1.8,19.6,0.41,19.3,23.7,"11:29:20",1
"19/06/05","11:40",0.0,26.3,63.9,1004.3,70.3,0.8,1.9,65.5,0.43,19.0,24.1,"11:30:08",1
"19/06/05","11:50",0.0,26.8,62.9,1004.5,354.3,0.6,1.8,345.9,0.45,19.2,24.2,"11:42:24",1
"19/06/05","12:00",0.0,27.5,61.3,1004.5,10.9,1.1,2.7,350.3,0.49,19.4,24.6,"11:59:20",1
"19/06/05","12:10",0.0,28.1,59.1,1005.0,10.2,1.2,2.8,344.4,0.53,19.4,24.7,"12:08:08",1
"19/06/05","12:20",0.0,27.6,59.0,1004.5,344.5,1.0,3.5,341.4,0.53,18.9,25.1,"12:11:52",1
"19/06/05","12:30",0.0,27.9,55.6,1004.8,17.6,1.1,2.8,350.6,0.63,18.2,25.3,"12:22:32",1
"19/06/05","12:40",0.0,27.9,57.5,1005.0,209.6,1.5,3.3,227.4,0.61,18.8,25.7,"12:30:56",1
"19/06/05","12:50",0.0,28.3,55.8,1004.5,219.5,1.8,3.3,220.1,0.59,18.7,25.8,"12:43:12",1
"19/06/05","13:00",0.0,28.7,55.0,1004.8,317.6,1.1,2.5,340.4,0.64,18.8,26.3,"12:54:16",1
"19/06/05","13:10",0.0,28.1,55.0,1004.5,343.4,1.2,5.0,335.7,0.51,18.3,26.3,"13:01:52",1
"19/06/05","13:20",0.0,29.3,54.9,1004.5,153.3,0.8,3.5,228.0,0.55,19.3,26.4,"13:15:52",1
"19/06/05","13:30",0.0,29.0,55.0,1004.3,239.1,1.2,3.7,183.4,0.46,19.1,26.3,"13:25:04",1
"19/06/05","13:40",0.0,27.9,55.5,1004.3,200.7,1.3,3.5,228.7,0.23,18.2,26.5,"13:34:08",1
"19/06/05","13:50",0.0,29.4,56.8,1004.1,227.3,1.1,3.1,168.4,0.46,20.0,26.2,"13:43:52",1
"19/06/05","14:00",0.0,28.7,54.0,1004.1,220.8,1.5,3.5,219.8,0.29,18.5,26.2,"13:54:24",1
"19/06/05","14:10",0.0,29.4,54.3,1003.6,183.7,2.0,4.2,222.6,0.52,19.3,26.2,"14:06:32",1
"19/06/05","14:20",0.0,29.6,52.1,1003.6,194.6,1.3,2.8,224.5,0.47,18.8,26.3,"14:12:32",1
"19/06/05","14:30",0.0,29.9,49.0,1003.6,150.4,1.3,4.3,186.3,0.54,18.1,26.6,"14:20:56",1
"19/06/05","14:40",0.0,30.1,48.3,1003.6,212.2,1.3,4.0,229.6,0.52,18.0,26.6,"14:39:12",1
"19/06/05","14:50",0.0,30.0,50.1,1003.4,174.5,1.7,3.5,175.6,0.51,18.5,26.8,"14:43:36",1
"19/06/05","15:00",0.0,30.1,50.3,1003.6,195.6,1.8,4.0,220.8,0.29,18.7,26.9,"14:55:36",1
"19/06/05","15:10",0.0,30.4,49.6,1003.1,182.4,1.6,3.4,209.0,0.45,18.7,27.1,"15:08:48",1
"19/06/05","15:20",0.0,29.2,51.3,1003.4,223.3,2.5,4.3,228.5,0.13,18.2,26.7,"15:19:04",1
"19/06/05","15:30",0.0,28.7,53.4,1003.1,194.9,2.1,4.1,210.7,0.10,18.3,26.8,"15:25:12",1
"19/06/05","15:40",0.0,28.7,53.0,1002.4,178.3,1.3,3.2,164.0,0.11,18.2,26.6,"15:30:02",1
"19/06/05","15:50",0.0,29.7,51.4,1002.4,169.1,2.0,3.9,204.6,0.22,18.7,26.8,"15:49:12",1
"19/06/05","16:00",0.0,29.4,53.0,1002.4,182.1,1.6,3.3,184.1,0.11,18.9,26.5,"15:54:24",1
"19/06/05","16:10",0.0,29.3,55.5,1002.6,168.1,1.7,3.3,222.3,0.17,19.5,26.5,"16:07:20",1
"19/06/05","16:20",0.0,29.8,53.3,1002.2,166.3,1.8,3.4,165.1,0.23,19.3,26.2,"16:11:52",1
"19/06/05","16:30",0.0,30.0,52.0,1002.6,165.2,2.0,3.5,197.8,0.23,19.1,26.3,"16:28:40",1
"19/06/05","16:40",0.0,29.3,55.1,1002.6,167.1,2.0,3.5,204.0,0.15,19.4,26.2,"16:31:52",1
"19/06/05","16:50",0.0,29.6,55.2,1002.2,171.3,1.8,3.9,147.7,0.12,19.7,26.3,"16:47:36",1
"19/06/05","17:00",0.0,29.8,53.5,1002.2,178.3,2.0,3.9,217.2,0.20,19.4,26.2,"16:57:04",1
"19/06/05","17:10",0.0,30.1,52.9,1002.4,158.6,1.6,4.1,160.0,0.17,19.5,26.2,"17:07:28",1
"19/06/05","17:20",0.0,30.0,54.0,1002.6,170.3,2.0,3.7,178.9,0.10,19.7,26.1,"17:14:24",1
"19/06/05","17:30",0.0,29.5,55.4,1002.4,157.4,1.8,3.6,158.4,0.06,19.7,26.3,"17:24:24",1
"19/06/05","17:40",0.0,29.6,54.4,1002.4,133.5,1.5,3.9,141.1,0.06,19.5,25.8,"17:32:16",1
"19/06/05","17:50",0.0,29.5,53.3,1001.7,356.3,2.0,4.2,353.8,0.04,19.0,26.2,"17:46:00",1
"19/06/05","18:00",0.0,29.2,54.0,1002.2,20.0,1.3,2.7,336.1,0.02,19.0,25.7,"17:56:08",1
"19/06/05","18:10",0.0,28.5,56.7,1001.9,324.3,1.7,3.3,322.0,0.00,19.1,25.9,"18:02:00",1
"19/06/05","18:20",0.0,28.4,57.5,1001.7,300.3,1.0,3.4,350.2,0.01,19.2,25.5,"18:18:24",1
"19/06/05","18:30",0.0,28.5,57.7,1001.7,254.0,1.6,4.1,224.3,0.02,19.4,25.6,"18:22:00",1
"19/06/05","18:40",0.0,28.3,57.5,1002.2,248.7,1.6,2.8,235.5,0.01,19.2,25.6,"18:34:56",1
"19/06/05","18:50",0.0,28.0,58.4,1002.4,267.4,1.0,2.5,230.6,0.00,19.1,25.2,"18:48:40",1
"19/06/05","19:00",0.0,27.8,59.6,1002.4,267.4,1.0,2.1,219.0,0.00,19.3,25.3,"18:52:08",1
"19/06/05","19:10",0.0,27.6,60.2,1002.6,321.0,1.1,2.1,337.5,0.00,19.2,24.9,"19:01:36",1
"19/06/05","19:20",0.0,27.3,62.1,1002.9,321.0,1.0,1.6,326.9,0.00,19.4,24.8,"19:12:24",1
"19/06/05","19:30",0.0,27.0,63.2,1002.9,292.8,0.5,0.8,323.3,0.00,19.4,24.8,"19:20:32",1
"19/06/05","19:40",0.0,26.7,64.1,1002.9,299.2,0.6,0.9,198.9,0.00,19.4,24.8,"19:36:32",1
"19/06/05","19:50",0.0,26.6,64.1,1002.6,279.1,1.0,1.8,267.3,0.00,19.3,24.5,"19:48:48",1
"19/06/05","20:00",0.0,26.9,62.6,1002.6,291.9,1.0,2.0,267.8,0.00,19.2,24.7,"19:56:24",1
"19/06/05","20:10",0.0,26.9,62.7,1003.1,314.4,1.3,2.0,323.8,0.00,19.2,24.7,"20:01:44",1
"19/06/05","20:20",0.0,26.7,62.7,1003.1,285.5,1.3,2.4,241.5,0.00,19.0,24.4,"20:12:48",1
"19/06/05","20:30",0.0,26.4,63.4,1003.1,328.6,1.8,3.7,331.3,0.00,18.9,24.4,"20:25:28",1
"19/06/05","20:40",0.0,26.0,65.5,1003.6,342.9,2.1,4.0,354.5,0.00,19.1,24.3,"20:39:28",1
"19/06/05","20:50",0.0,25.7,66.2,1004.1,339.0,2.8,5.0,326.2,0.00,19.0,24.3,"20:42:00",1
"19/06/05","21:00",0.0,25.5,66.6,1003.8,338.4,2.7,7.0,322.6,0.00,18.9,24.3,"20:56:00",1
"19/06/05","21:10",0.0,25.5,66.2,1004.5,344.3,3.0,7.1,335.5,0.00,18.8,23.9,"21:03:04",1
"19/06/05","21:20",0.0,25.3,66.0,1004.5,341.5,2.7,4.9,350.1,0.00,18.5,23.8,"21:15:04",1
"19/06/05","21:30",0.0,25.1,66.2,1004.3,344.7,2.6,4.4,328.9,0.00,18.4,23.8,"21:26:56",1
"19/06/05","21:40",0.0,24.8,66.8,1004.5,332.3,1.7,3.3,350.4,0.00,18.3,23.7,"21:31:52",1
"19/06/05","21:50",0.0,24.5,67.5,1005.0,314.4,1.5,2.6,326.6,0.00,18.1,23.7,"21:40:02",1
"19/06/05","22:00",0.0,24.5,68.1,1005.0,337.0,2.7,4.1,352.8,0.00,18.3,23.7,"21:56:40",1
"19/06/05","22:10",0.0,24.5,67.8,1005.0,351.1,2.2,3.6,331.1,0.00,18.2,23.4,"22:09:52",1
"19/06/05","22:20",0.0,24.3,67.9,1005.2,320.9,2.2,3.6,322.1,0.00,18.0,23.3,"22:10:40",1
"19/06/05","22:30",0.0,24.0,69.0,1005.5,295.9,1.2,2.8,346.6,0.00,18.0,23.2,"22:20:56",1
"19/06/05","22:40",0.0,23.8,69.3,1005.5,277.2,1.3,2.6,297.4,0.00,17.9,23.2,"22:35:20",1
"19/06/05","22:50",0.0,23.6,68.9,1005.7,328.4,1.5,4.0,343.6,0.00,17.6,23.1,"22:40:02",1
"19/06/05","23:00",0.0,23.5,69.2,1005.2,335.1,1.7,3.1,334.9,0.00,17.6,23.1,"22:50:48",1
"19/06/05","23:10",0.0,23.3,69.2,1005.7,341.4,1.6,3.3,324.1,0.00,17.4,23.2,"23:06:00",1
"19/06/05","23:20",0.0,23.2,69.2,1005.5,357.5,1.5,2.7,350.4,0.00,17.3,23.0,"23:19:28",1
"19/06/05","23:30",0.0,22.6,71.3,1005.7,15.1,1.3,2.2,27.2,0.00,17.2,23.0,"23:23:36",1
"19/06/05","23:40",0.0,22.1,73.0,1005.5,320.4,1.6,2.8,321.9,0.00,17.1,22.7,"23:39:04",1
"19/06/05","23:50",0.0,21.8,73.9,1005.7,309.2,1.7,2.9,319.8,0.00,17.0,22.8,"23:48:32",1
"19/06/05","24:00",0.0,21.5,74.4,1006.0,294.6,1.1,1.8,271.8,0.00,16.8,22.6,"23:53:28",1
